Flag for Czech Republic Weather past 2 weeks in Ostrava, Czech Republic

Now
63 °F

Partly sunny.


Feels Like: 63 °F
Forecast: 44 / 64 °F
Wind: N/A

Location: Ostrava / Mosnov


UV Index: 3 (Moderate)

Visibility: 28 mi


Pressure: 29.80 "Hg

Humidity: 50%

Dew point: 44 °F

Location of OstravaLocation

Historic Weather in Ostrava

°F

Ostrava temperature yesterday

Maximum temperature yesterday: 65 °F (at 4:00 PM)
Minimum temperature yesterday: 42 °F (at 5:00 AM)
Average temperature yesterday: 52 °F

Past Weeks' High & Low Weather Summary

 TemperatureHumidityPressure
High71 °F (Apr 8, 3:00 PM)98% (Apr 20, 6:00 AM)30.36 "Hg (Apr 20, 6:00 AM)
Low31 °F (Apr 12, 7:00 AM)31% (Apr 18, 5:00 PM)29.75 "Hg (Apr 18, 4:00 PM)
Average47 °F75%30.01 "Hg
* Reported Apr 6 1:00 PM — Apr 21 1:00 PM, Ostrava, Weather by CustomWeather, © 2014

Note: Actual official high and low records may vary slightly from our data, if they occured in-between our weather recording intervals... More about our weather records

Advertising

Historic Weather Conditions — Data for Previous 24 hours

 ConditionsComfort  
Time TempWeatherWind HumidityBarometerVisibility
1:00 PM
Apr 21
62 °FPartly sunny.N/A49%29.80 "Hg25 mi
12:00 PM61 °FPartly sunny.N/A54%29.81 "Hg22 mi
11:00 AM62 °FScattered clouds.3 mph52%29.81 "Hg16 mi
10:00 AM57 °FScattered clouds.N/A68%29.83 "Hg11 mi
9:00 AM50 °FFog.N/A97%29.85 "Hg7 mi
8:00 AM44 °FFog.1 mph98%29.87 "Hg1 mi
7:00 AM42 °FFog.N/A98%29.87 "Hg0 mi
6:00 AM41 °FFog.N/A98%29.87 "Hg0 mi
5:00 AM42 °FFog.N/A98%29.86 "Hg0 mi
4:00 AM42 °FFog.1 mph98%29.87 "Hg0 mi
3:00 AM40 °FFog.2 mph98%29.87 "Hg0 mi
2:00 AM44 °FFog.N/A97%29.87 "Hg0 mi
1:00 AM43 °FFog.N/A96%29.88 "Hg4 mi
12:00 AM47 °FPassing clouds.2 mph95%29.87 "Hg7 mi
11:00 PM
Apr 20
49 °FPassing clouds.N/A93%29.88 "Hg7 mi
10:00 PM49 °FLight rain. Overcast.5 mph91%29.88 "Hg6 mi
9:00 PM50 °FLight rain. Overcast.7 mph88%29.86 "Hg4 mi
8:00 PM55 °FThundershowers. Overcast.6 mph74%29.83 "Hg6 mi
7:00 PM59 °FOvercast.6 mph58%29.79 "Hg6 mi
6:00 PM63 °FPartly sunny.7 mph47%29.78 "Hg19 mi
5:00 PM61 °FPartly sunny.6 mph47%29.79 "Hg25 mi
4:00 PM65 °FPartly sunny.5 mph42%29.79 "Hg25 mi
3:00 PM65 °FOvercast.6 mph49%29.81 "Hg25 mi
2:00 PM63 °FOvercast.5 mph57%29.84 "Hg19 mi
Weather by CustomWeather, © 2014

See weather overview